FW5120 Weather Reports


time (UTC)temp
C
wind
direction
speed
KPH
gust
KPH
rain 1hr
cm
rain 24hr
cm
rain mn
cm
humidity
%
barometer
mb
20260503071601 16 34 1.6 4.8 0.00 0.00 0.00 70 1021.4
20260503054536 10 331 0.0 3.2 0.00 0.00 0.00 84 1021.0
20260503053030 10 331 0.0 3.2 0.00 0.00 0.00 87 1020.9
20260503051528 8 307 0.0 4.8 0.00 0.00 0.00 91 1021.0
20260503050026 8 261 0.0 1.6 0.00 0.00 0.00 93 1021.0
20260503044527 6 261 0.0 0.0 0.00 0.00 0.00 94 1021.0
20260503043022 6 261 0.0 0.0 0.00 0.00 0.00 93 1020.9
20260503041522 5 261 0.0 0.0 0.00 0.00 0.00 93 1020.8
20260503040026 5 261 0.0 1.6 0.00 0.00 0.00 93 1020.8
20260503034520 5 261 0.0 1.6 0.00 0.00 0.00 93 1020.7
20260503033020 5 261 0.0 1.6 0.00 0.00 0.00 93 1020.7
20260503031517 5 261 0.0 3.2 0.00 0.00 0.00 93 1020.8
20260503030019 5 272 0.0 1.6 0.00 0.00 0.00 93 1020.9
20260503024514 5 272 0.0 3.2 0.00 0.00 0.00 93 1020.9
20260503023033 5 273 0.0 3.2 0.00 0.00 0.00 92 1021.0
20260503021512 6 273 0.0 3.2 0.00 0.00 0.00 93 1021.1
20260503020009 6 273 0.0 3.2 0.00 0.00 0.00 93 1021.1
20260503014508 6 270 0.0 3.2 0.00 0.00 0.00 92 1021.2
20260503013007 6 270 0.0 1.6 0.00 0.00 0.00 92 1021.2
20260503011507 6 270 0.0 1.6 0.00 0.00 0.00 92 1021.3
20260503010004 6 270 0.0 1.6 0.00 0.00 0.00 92 1021.4
20260503004504 6 270 0.0 1.6 0.00 0.00 0.00 92 1021.4
20260503003001 6 270 0.0 3.2 0.00 0.00 0.00 92 1021.6
20260503001601 6 271 0.0 3.2 0.00 0.00 0.00 92 1021.7
20260503000110 6 271 0.0 1.6 0.00 0.00 0.00 92 1021.7
20260502234556 7 271 0.0 1.6 0.00 0.00 0.00 92 1021.7
20260502233059 7 271 0.0 3.2 0.00 0.00 0.00 91 1021.8
20260502231552 7 202 0.0 1.6 0.00 0.00 0.00 91 1021.8
20260502230051 7 202 1.6 3.2 0.00 0.00 0.00 91 1021.8
20260502224548 7 202 0.0 1.6 0.00 0.00 0.00 90 1021.9
20260502223046 7 202 0.0 1.6 0.00 0.00 0.00 90 1022.1
20260502221546 7 202 0.0 1.6 0.00 0.00 0.00 90 1022.1
20260502220044 8 202 0.0 1.6 0.00 0.00 0.00 90 1022.1
20260502214543 8 202 0.0 1.6 0.00 0.00 0.00 89 1022.0
20260502213043 8 202 0.0 1.6 0.00 0.00 0.00 89 1021.9
20260502211551 8 202 0.0 1.6 0.00 0.00 0.00 88 1021.9
20260502210041 8 202 0.0 1.6 0.00 0.00 0.00 87 1021.9
20260502204540 9 202 0.0 1.6 0.00 0.00 0.00 86 1022.0
20260502203040 9 202 0.0 0.0 0.00 0.00 0.00 86 1022.0
20260502201539 10 202 0.0 0.0 0.00 0.00 0.00 85 1022.1
20260502200044 10 202 0.0 1.6 0.00 0.00 0.00 84 1022.0
20260502194537 10 202 0.0 1.6 0.00 0.00 0.00 84 1021.9
20260502193037 11 202 0.0 0.0 0.00 0.00 0.00 83 1021.9
20260502191538 11 202 0.0 1.6 0.00 0.00 0.00 82 1021.8
20260502190036 11 202 0.0 1.6 0.00 0.00 0.00 80 1021.8
20260502184538 12 202 0.0 1.6 0.00 0.00 0.00 80 1021.6
20260502183035 12 202 0.0 1.6 0.00 0.00 0.00 78 1021.5
20260502181534 13 202 0.0 1.6 0.00 0.00 0.00 76 1021.5
20260502163029 21 85 1.6 4.8 0.00 0.00 0.00 44 1021.7
20260502161527 21 100 1.6 4.8 0.00 0.00 0.00 44 1021.8
20260502151534 22 95 3.2 14.5 0.00 0.00 0.00 41 1022.3
20260502123007 22 250 1.6 8.0 0.00 0.00 0.00 40 1023.8
20260502121507 22 348 6.4 14.5 0.00 0.00 0.00 48 1024.0
20260502114502 22 40 4.8 12.9 0.00 0.00 0.00 45 1024.4
20260502113102 22 49 3.2 9.7 0.00 0.00 0.00 44 1024.5
20260502111559 22 90 8.0 19.3 0.00 0.00 0.00 45 1024.7
20260502110056 22 78 1.6 4.8 0.00 0.00 0.00 45 1024.9
20260502104553 21 76 3.2 9.7 0.00 0.00 0.00 46 1025.2
20260502103051 21 76 1.6 9.7 0.00 0.00 0.00 46 1025.4
20260502101549 21 28 4.8 11.3 0.00 0.00 0.00 48 1025.6